This is the latest recevied weather packets stored in our database for station/object WA1OUI. If no packets are shown the sender has not sent any weather packets the latest 10 day(s).
| Time | Temp. | Humidity | Pressure | Rain* | Wind** | Luminosity | Snow |
|---|---|---|---|---|---|---|---|
| 1777978495 | 7.78° C | 96% | 1008.8 hPa | 0 mm | - | 25 W/m² | - |
| 1777978190 | 7.78° C | 96% | 1008.7 hPa | 0 mm | - | 28 W/m² | - |
| 1777977888 | 7.22° C | 96% | 1008.5 hPa | 0 mm | - | 28 W/m² | - |
| 1777977584 | 7.22° C | 96% | 1008.6 hPa | 0 mm | - | 23 W/m² | - |
| 1777977282 | 7.22° C | 96% | 1008.6 hPa | 0 mm | - | 19 W/m² | - |
| 1777976979 | 7.22° C | 96% | 1008.4 hPa | 0 mm | - | 16 W/m² | - |
| 1777976676 | 7.22° C | 96% | 1008.6 hPa | 0 mm | - | 13 W/m² | - |
| 1777976374 | 7.22° C | 96% | 1008.5 hPa | 0 mm | - | 10 W/m² | - |
| 1777976072 | 7.22° C | 96% | 1008.1 hPa | 0 mm | - | 8 W/m² | - |
| 1777975768 | 7.22° C | 96% | 1008.3 hPa | 0 mm | - | 7 W/m² | - |
| 1777975465 | 7.22° C | 96% | 1008.3 hPa | 0 mm | - | 6 W/m² | - |
| 1777975161 | 7.22° C | 96% | 1008.2 hPa | 0 mm | - | 4 W/m² | - |
| 1777974858 | 7.22° C | 96% | 1008.2 hPa | 0 mm | - | 3 W/m² | - |
| 1777974554 | 7.22° C | 96% | 1008.3 hPa | 0 mm | - | 2 W/m² | - |
| 1777974252 | 7.22° C | 96% | 1008.2 hPa | 0 mm | - | 2 W/m² | - |
| 1777973947 | 7.22° C | 96% | 1008.1 hPa | 0 mm | - | 1 W/m² | - |
| 1777973645 | 7.22° C | 96% | 1008.2 hPa | 0 mm | - | 0 W/m² | - |
| 1777973342 | 7.22° C | 96% | 1008.2 hPa | 0 mm | - | 0 W/m² | - |
| 1777973040 | 7.22° C | 95% | 1008.1 hPa | 0 mm | - | 0 W/m² | - |
| 1777972737 | 7.22° C | 95% | 1008.2 hPa | 0 mm | - | 0 W/m² | - |
| 1777972435 | 7.22° C | 95% | 1008.1 hPa | 0 mm | - | 0 W/m² | - |
| 1777972132 | 7.22° C | 95% | 1008.2 hPa | 0 mm | - | 0 W/m² | - |
| 1777971830 | 7.22° C | 95% | 1008.3 hPa | 0 mm | - | 0 W/m² | - |
| 1777971527 | 7.22° C | 95% | 1008.2 hPa | 0 mm | - | 0 W/m² | - |
| 1777971225 | 7.22° C | 95% | 1008.2 hPa | 0 mm | - | 0 W/m² | - |
* Rain latest hour (hover to see other rain measurements)
** Current wind speed in m/s (hover to see current wind gust speed)